Sparta, TN

3:22 PM CST on December 18, 2017 (GMT -0600)
Upper Cumberland Regional

Weather History for KSRB - May, 2014

Change the Weather History Date:

Friday, May 2, 2014

  Actual Average (KCSV) Record (KCSV)
Temperature  
Mean Temperature 54 °F -  
Max Temperature 68 °F 69 °F 85 °F (2012)
Min Temperature 39 °F 49 °F 30 °F (1963)
Degree Days  
Heating Degree Days 12    
Growing Degree Days 4 (Base 50)    
Moisture  
Dew Point 42 °F    
Average Humidity 69    
Maximum Humidity 100    
Minimum Humidity 35    
Precipitation  
Precipitation 0.00 in - - ()
Sea Level Pressure  
Sea Level Pressure 29.95 in    
Wind  
Wind Speed 2 mph (WSW)    
Max Wind Speed 13 mph    
Max Gust Speed -    
Visibility 10 miles    
Events      
Averages and records for this station are not official NWS values.
T = Trace of Precipitation, MM = Missing Value Source: NWS Daily Summary

Daily Weather History Graph

Daily Weather History Graph

Search for Another Location

Airport or City:

Trip Planner

Search our weather history database for the weather conditions in past years. The results will help you decide how hot, cold, wet, or windy it might be!

Date:

Astronomy

May. 02, 2014 Rise Set
Actual Time 5:48 AM CDT 7:30 PM CDT
Civil Twilight 5:20 AM CDT 7:57 PM CDT
Nautical Twilight 4:47 AM CDT 8:31 PM CDT
Astronomical Twilight 4:12 AM CDT 9:06 PM CDT
Moon 8:26 AM CDT (5/2) 10:50 PM CDT (5/2)
Length of Visible Light 14h 37m
Length of Day
13h 41m
Waxing Crescent, 12% of the Moon is Illuminated
May 2
Waxing Crescent
May 6
First Quarter
May 14
Full
May 21
Last Quarter
May 28
New

Hourly Weather History & Observations

Time (CDT) Temp. Dew Point Humidity Pressure Visibility Wind Dir Wind Speed Gust Speed Precip Events Conditions
12:15 AM 44.6 °F 42.8 °F 93% 29.99 in 10.0 mi Calm Calm - N/A   Scattered Clouds
12:35 AM 42.8 °F 42.8 °F 100% 29.99 in 10.0 mi Calm Calm - N/A   Partly Cloudy
12:55 AM 42.8 °F 42.8 °F 100% 29.98 in 10.0 mi Calm Calm - N/A   Clear
1:15 AM 42.8 °F 41.0 °F 93% 29.97 in 10.0 mi Calm Calm - N/A   Clear
1:35 AM 42.8 °F 41.0 °F 93% 29.95 in 10.0 mi Calm Calm - N/A   Clear
1:55 AM 39.2 °F 39.2 °F 100% 29.96 in 10.0 mi Calm Calm - N/A   Clear
2:15 AM 41.0 °F 39.2 °F 93% 29.96 in 10.0 mi Calm Calm - N/A   Clear
2:35 AM 39.2 °F 39.2 °F 100% 29.96 in 10.0 mi Calm Calm - N/A   Clear
2:55 AM 39.2 °F 39.2 °F 100% 29.96 in 10.0 mi Calm Calm - N/A   Clear
3:15 AM 39.2 °F 39.2 °F 100% 29.96 in 10.0 mi Calm Calm - N/A   Clear
3:35 AM 39.2 °F 39.2 °F 100% 29.96 in 10.0 mi Calm Calm - N/A   Clear
3:55 AM 39.2 °F 39.2 °F 100% 29.97 in 10.0 mi Calm Calm - N/A   Clear
4:15 AM 39.2 °F 39.2 °F 100% 29.98 in 10.0 mi Calm Calm - N/A   Clear
4:35 AM 39.2 °F 37.4 °F 93% 29.97 in 10.0 mi Calm Calm - N/A   Clear
4:55 AM 39.2 °F 37.4 °F 93% 29.97 in 10.0 mi Calm Calm - N/A   Clear
5:15 AM 39.2 °F 39.2 °F 100% 29.96 in 10.0 mi Calm Calm - N/A   Clear
5:35 AM 39.2 °F 39.2 °F 100% 29.97 in 10.0 mi Calm Calm - N/A   Scattered Clouds
5:55 AM 39.2 °F 39.2 °F 100% 29.98 in 10.0 mi Calm Calm - N/A   Partly Cloudy
6:15 AM 39.2 °F 39.2 °F 100% 29.99 in 10.0 mi Calm Calm - N/A   Clear
6:35 AM 42.8 °F 41.0 °F 93% 29.98 in 10.0 mi Calm Calm - N/A   Clear
6:55 AM 44.6 °F 42.8 °F 93% 29.98 in 10.0 mi Calm Calm - N/A   Partly Cloudy
7:15 AM 46.4 °F 42.8 °F 87% 29.98 in 10.0 mi Calm Calm - N/A   Clear
7:35 AM 48.2 °F 42.8 °F 82% 29.98 in 10.0 mi Calm Calm - N/A   Clear
7:55 AM 51.8 °F 44.6 °F 76% 29.98 in 10.0 mi SSW 4.6 mph - N/A   Clear
8:15 AM 51.8 °F 44.6 °F 76% 29.98 in 10.0 mi South 3.5 mph - N/A   Clear
8:35 AM 53.6 °F 44.6 °F 72% 29.97 in 10.0 mi South 3.5 mph - N/A   Clear
8:55 AM 55.4 °F 44.6 °F 67% 29.97 in 10.0 mi South 4.6 mph - N/A   Clear
9:15 AM 57.2 °F 44.6 °F 63% 29.97 in 10.0 mi Variable 5.8 mph - N/A   Clear
9:35 AM 57.2 °F 44.6 °F 63% 29.96 in 10.0 mi South 5.8 mph - N/A   Clear
9:55 AM 60.8 °F 42.8 °F 52% 29.97 in 10.0 mi South 8.1 mph - N/A   Clear
10:15 AM 62.6 °F 42.8 °F 48% 29.98 in 10.0 mi WSW 8.1 mph - N/A   Clear
10:35 AM 62.6 °F 42.8 °F 48% 29.97 in 10.0 mi Variable 6.9 mph - N/A   Clear
10:55 AM 64.4 °F 42.8 °F 45% 29.96 in 10.0 mi West 5.8 mph - N/A   Clear
11:15 AM 62.6 °F 42.8 °F 48% 29.96 in 10.0 mi West 8.1 mph - N/A   Scattered Clouds
11:35 AM 64.4 °F 42.8 °F 45% 29.95 in 10.0 mi West 8.1 mph - N/A   Scattered Clouds
11:55 AM 66.2 °F 42.8 °F 43% 29.95 in 10.0 mi SW 8.1 mph - N/A   Scattered Clouds
12:15 PM 66.2 °F 42.8 °F 43% 29.94 in 10.0 mi West 9.2 mph - N/A   Scattered Clouds
12:35 PM 66.2 °F 42.8 °F 43% 29.94 in 10.0 mi WSW 10.4 mph - N/A   Scattered Clouds
12:55 PM 66.2 °F 42.8 °F 43% 29.94 in 10.0 mi West 12.7 mph - N/A   Mostly Cloudy
1:15 PM 68.0 °F 42.8 °F 40% 29.94 in 10.0 mi West 9.2 mph - N/A   Partly Cloudy
1:35 PM 68.0 °F 44.6 °F 43% 29.93 in 10.0 mi Variable 6.9 mph - N/A   Partly Cloudy
1:55 PM 66.2 °F 42.8 °F 43% 29.93 in 10.0 mi WNW 9.2 mph - N/A   Mostly Cloudy
2:15 PM 68.0 °F 42.8 °F 40% 29.93 in 10.0 mi NW 11.5 mph - N/A   Scattered Clouds
2:35 PM 66.2 °F 39.2 °F 37% 29.92 in 10.0 mi West 5.8 mph - N/A   Scattered Clouds
2:55 PM 68.0 °F 41.0 °F 37% 29.91 in 10.0 mi West 6.9 mph - N/A   Mostly Cloudy
3:15 PM 66.2 °F 41.0 °F 40% 29.91 in 10.0 mi West 9.2 mph - N/A   Scattered Clouds
3:35 PM 68.0 °F 39.2 °F 35% 29.91 in 10.0 mi WSW 9.2 mph - N/A   Scattered Clouds
3:55 PM 66.2 °F 39.2 °F 37% 29.91 in 10.0 mi West 5.8 mph - N/A   Partly Cloudy
4:15 PM 66.2 °F 37.4 °F 35% 29.91 in 10.0 mi Variable 3.5 mph - N/A   Partly Cloudy
4:35 PM 66.2 °F 37.4 °F 35% 29.91 in 10.0 mi Variable 6.9 mph - N/A   Scattered Clouds
4:55 PM 66.2 °F 39.2 °F 37% 29.92 in 10.0 mi NW 8.1 mph - N/A   Mostly Cloudy
5:15 PM 66.2 °F 39.2 °F 37% 29.92 in 10.0 mi Variable 3.5 mph - N/A   Mostly Cloudy
5:35 PM 64.4 °F 39.2 °F 40% 29.92 in 10.0 mi West 5.8 mph - N/A   Mostly Cloudy
5:55 PM 66.2 °F 39.2 °F 37% 29.91 in 10.0 mi WNW 8.1 mph - N/A   Unknown
6:15 PM 64.4 °F 39.2 °F 40% 29.91 in 10.0 mi Variable 3.5 mph - N/A   Mostly Cloudy
6:35 PM 64.4 °F 39.2 °F 40% 29.91 in 10.0 mi NW 6.9 mph - N/A   Mostly Cloudy
7:15 PM 60.8 °F 39.2 °F 45% 29.92 in 10.0 mi NNW 5.8 mph - N/A   Scattered Clouds
7:35 PM 59.0 °F 42.8 °F 55% 29.93 in 10.0 mi Calm Calm - N/A   Clear
7:55 PM 57.2 °F 42.8 °F 59% 29.94 in 10.0 mi Calm Calm - N/A   Scattered Clouds
8:15 PM 57.2 °F 42.8 °F 59% 29.94 in 10.0 mi Calm Calm - N/A   Mostly Cloudy
8:35 PM 53.6 °F 44.6 °F 72% 29.94 in 10.0 mi Calm Calm - N/A   Partly Cloudy
8:55 PM 51.8 °F 46.4 °F 82% 29.95 in 10.0 mi Calm Calm - N/A   Mostly Cloudy
9:15 PM 51.8 °F 46.4 °F 82% 29.95 in 10.0 mi Calm Calm - N/A   Mostly Cloudy
9:35 PM 50.0 °F 46.4 °F 87% 29.96 in 10.0 mi Calm Calm - N/A   Mostly Cloudy
9:55 PM 48.2 °F 44.6 °F 87% 29.97 in 10.0 mi Calm Calm - N/A   Mostly Cloudy
10:15 PM 46.4 °F 44.6 °F 93% 29.97 in 10.0 mi Calm Calm - N/A   Clear
10:35 PM 44.6 °F 42.8 °F 93% 29.96 in 10.0 mi Calm Calm - N/A   Clear
10:55 PM 44.6 °F 42.8 °F 93% 29.96 in 10.0 mi Calm Calm - N/A   Clear
11:15 PM 42.8 °F 42.8 °F 100% 29.96 in 10.0 mi Calm Calm - N/A   Clear
11:35 PM 44.6 °F 42.8 °F 93% 29.96 in 10.0 mi Calm Calm - N/A   Clear
11:55 PM 44.6 °F 42.8 °F 93% 29.96 in 10.0 mi Calm Calm - N/A   Clear